SL-8 DEB

Satellite information

Favourite Embed

Satellite Type and Status

DEBRISIN ORBIT

Key statistics

Satellite SL-8 DEB at a glance.

Uptime

12565

Days in orbit

Revolutions

≈ 12.3

Per day

Orbit

LEO

Low Earth Orbit

Inclination

73.9

Latest

Satellite identification and parameters

Extended collection of information and parameters for SL-8 DEB.

Object identification

Identified? True

Debris? True

Object name: SL-8 DEB

International designator: 1991-009DU

Object number (NORAD): 39836

Object ID (CCSDS): 39836

Country: COMMONWEALTH OF INDEPENDENT STATES (CIS)

Current information (Y/N): Y

RCS size: SMALL

Orbital parameters

Period: 117.128 minutes

Inclination: 73.908 deg

SMA: 7929.902 km

Apoapsis: 1661.225 km

Periapsis: 1442.309 km

RAAN: 215.8447 deg

Eccentricy: 0.0138032

Argument of periapsis: 253.0974 deg

Mean anomaly: 226.5271 deg

Mean motion: 12.29422176 rev/day

Mean motion (dot): 0.00000018 rev/day2

B* drag term: 0.00028573 1/REarth

Two-line elements (TLE)

Creation date: July 7, 2025, 5:18 a.m.

Reference frame: TEME

Reference center: EARTH

Epoch: July 6, 2025, 6:40 p.m. UTC

TLE line 0: 0 SL-8 DEB

TLE line 1: 1 39836U 91009DU 25187.77836899 .00000018 00000-0 28573-3 0 9995

TLE line 2: 2 39836 73.9080 215.8447 0138032 253.0974 226.5271 12.29422176499166

Live tracking on map

Real-time ground track for satellite SL-8 DEB.

In-orbit conjunctions

A list of the most updated potential collisions computed for object SL-8 DEB.

Target Orbit TCA Probability of collision Miss distance Type
COSMOS 982 LEO 2024-12-28 05:13:29 0.00010661 994.0 (m) PAYLOAD

Associated space launch

Military communications satellites

SL-8 DEB was lifted into orbit during the mission ‘Kosmos-3M | Strela-1M 353-360’, on board a Kosmos-3M space rocket.

The launch took place on Feb. 12, 1991, 2:44 a.m. from 133/3 (133L).

For more information about the launch, click the button.

Launch to space Kosmos-3M | Strela-1M 353-360
Kosmos-3M | Strela-1M 353-360

Agency: N/A

Status: Launch Successful

Launch date: Feb. 12, 1991, 2:44 a.m. UTC

Rocket: Kosmos-3M

Launch pad: 133/3 (133L)

Location: Plesetsk Cosmodrome, Russian Federation

...

Latest news about this satellite

There are no fresh news available about this satellite. Check back as we update our databases every day.


Newsletter sign-up

Weekly statistics, charts and insights to help you stay on top of the space industry.